Flag for Germany Weather past 2 weeks in Königswinter, North Rhine-Westphalia, Germany

Now
42 °F

Partly sunny.


Feels Like: 35 °F
Forecast: 37 / 45 °F
Wind: 10 mph from West

Location: Bonn-Hangelar

Current Time: Mar 4, 2015 at 4:34:42 PM

Latest Report: Mar 4, 2015 at 4:00 PM


Visibility: 25 mi

Pressure: 30.33 "Hg

Humidity: 74%

Dew point: 34 °F

Location of KönigswinterLocation

Historic Weather in Königswinter — Graph

°F

Königswinter temperature yesterday

Maximum temperature yesterday: 46 °F (at 2:00 PM)
Minimum temperature yesterday: 35 °F (at 11:00 PM)
Average temperature yesterday: 38 °F

Past Weeks' High & Low Weather Summary

 TemperatureHumidityPressure
High49 °F (Mar 1, 1:00 PM)100% (Feb 17, 4:00 PM)30.78 "Hg (Feb 17, 4:00 PM)
Low31 °F (Feb 19, 9:00 PM)54% (Feb 28, 5:00 PM)29.38 "Hg (Feb 21, 3:00 AM)
Average38 °F86%29.96 "Hg
* Reported Feb 17 3:00 PM — Mar 4 3:00 PM, Königswinter, Weather by CustomWeather, © 2015

Note: Actual official high and low records may vary slightly from our data, if they occured in-between our weather recording intervals... More about our weather records

Advertising

Königswinter weather history for previous 24 hours

 ConditionsComfort  
Time TempWeatherWind HumidityBarometerVisibility
3:00 PM
Wed, Mar 4
41 °FPartly sunny.10 mph73%30.31 "Hg19 mi
2:00 PM42 °FPartly sunny.9 mph78%30.31 "Hg22 mi
1:00 PM41 °FPartly sunny.9 mph79%30.31 "Hg19 mi
12:00 PM39 °FOvercast.8 mph85%30.30 "Hg16 mi
11:00 AM38 °FOvercast.9 mph87%30.29 "Hg16 mi
10:00 AM37 °FPartly sunny.8 mph88%30.28 "Hg22 mi
9:00 AM35 °FScattered clouds.9 mph87%30.26 "Hg16 mi
8:00 AM35 °FPassing clouds.8 mph88%30.24 "Hg22 mi
7:00 AM34 °FPassing clouds.7 mph87%30.22 "Hg22 mi
6:00 AM34 °FClear.7 mph89%30.22 "Hg28 mi
5:00 AM35 °FClear.7 mph88%30.20 "Hg17 mi
4:00 AM35 °FClear.8 mph89%30.19 "Hg19 mi
3:00 AM36 °FPassing clouds.8 mph92%30.18 "Hg16 mi
2:00 AM35 °FPassing clouds.5 mph95%30.18 "Hg9 mi
1:00 AM35 °FDrizzle. Low clouds.5 mph94%30.17 "Hg11 mi
12:00 AM38 °FLight rain. Passing clouds.9 mph88%30.15 "Hg14 mi
11:00 PM
Tue, Mar 3
35 °FPassing clouds.5 mph96%30.13 "Hg9 mi
10:00 PM35 °FLight rain. Low clouds.3 mph95%30.12 "Hg10 mi
9:00 PM35 °FSprinkles. Overcast.5 mph97%30.11 "Hg16 mi
8:00 PM36 °FSprinkles. Overcast.6 mph96%30.09 "Hg16 mi
7:00 PM39 °FOvercast.7 mph90%30.04 "Hg25 mi
6:00 PM39 °FThunderstorms. Overcast.7 mph90%30.03 "Hg31 mi
5:00 PM37 °FThundershowers. Overcast.14 mph94%30.03 "Hg6 mi
4:00 PM41 °FLight rain. Overcast.10 mph92%30.01 "Hg7 mi
Weather by CustomWeather, © 2015

See weather overviewHow to use our weather pages